Index of /20260509/WXO-DD/model_rdps/10km/00/008
Name Last modified Size Description
Parent Directory -
20260509T00Z_MSC_RDPS_AbsoluteVorticity_IsbL-0250_RLatLon0.09_PT008H.grib2 2026-05-09 02:41 601K
20260509T00Z_MSC_RDPS_AbsoluteVorticity_IsbL-0500_RLatLon0.09_PT008H.grib2 2026-05-09 02:41 564K
20260509T00Z_MSC_RDPS_AbsoluteVorticity_IsbL-0700_RLatLon0.09_PT008H.grib2 2026-05-09 02:41 623K
20260509T00Z_MSC_RDPS_AbsoluteVorticity_IsbL-0850_RLatLon0.09_PT008H.grib2 2026-05-09 02:41 788K
20260509T00Z_MSC_RDPS_AirTemp_AGL-120m_RLatLon0.09_PT008H.grib2 2026-05-09 02:41 374K
20260509T00Z_MSC_RDPS_AirTemp_AGL-2m_RLatLon0.09_PT008H.grib2 2026-05-09 02:41 619K
20260509T00Z_MSC_RDPS_AirTemp_AGL-40m_RLatLon0.09_PT008H.grib2 2026-05-09 02:41 388K
20260509T00Z_MSC_RDPS_AirTemp_AGL-80m_RLatLon0.09_PT008H.grib2 2026-05-09 02:41 380K
20260509T00Z_MSC_RDPS_AirTemp_IsbL-0001_RLatLon0.09_PT008H.grib2 2026-05-09 02:41 227K
20260509T00Z_MSC_RDPS_AirTemp_IsbL-0005_RLatLon0.09_PT008H.grib2 2026-05-09 02:41 278K
20260509T00Z_MSC_RDPS_AirTemp_IsbL-0010_RLatLon0.09_PT008H.grib2 2026-05-09 02:41 287K
20260509T00Z_MSC_RDPS_AirTemp_IsbL-0020_RLatLon0.09_PT008H.grib2 2026-05-09 02:41 303K
20260509T00Z_MSC_RDPS_AirTemp_IsbL-0030_RLatLon0.09_PT008H.grib2 2026-05-09 02:41 324K
20260509T00Z_MSC_RDPS_AirTemp_IsbL-0050_RLatLon0.09_PT008H.grib2 2026-05-09 02:41 302K
20260509T00Z_MSC_RDPS_AirTemp_IsbL-0100_RLatLon0.09_PT008H.grib2 2026-05-09 02:41 384K
20260509T00Z_MSC_RDPS_AirTemp_IsbL-0150_RLatLon0.09_PT008H.grib2 2026-05-09 02:41 410K
20260509T00Z_MSC_RDPS_AirTemp_IsbL-0175_RLatLon0.09_PT008H.grib2 2026-05-09 02:41 401K
20260509T00Z_MSC_RDPS_AirTemp_IsbL-0200_RLatLon0.09_PT008H.grib2 2026-05-09 02:41 408K
20260509T00Z_MSC_RDPS_AirTemp_IsbL-0225_RLatLon0.09_PT008H.grib2 2026-05-09 02:41 412K
20260509T00Z_MSC_RDPS_AirTemp_IsbL-0250_RLatLon0.09_PT008H.grib2 2026-05-09 02:41 422K
20260509T00Z_MSC_RDPS_AirTemp_IsbL-0275_RLatLon0.09_PT008H.grib2 2026-05-09 02:41 404K
20260509T00Z_MSC_RDPS_AirTemp_IsbL-0300_RLatLon0.09_PT008H.grib2 2026-05-09 02:41 435K
20260509T00Z_MSC_RDPS_AirTemp_IsbL-0350_RLatLon0.09_PT008H.grib2 2026-05-09 02:41 422K
20260509T00Z_MSC_RDPS_AirTemp_IsbL-0400_RLatLon0.09_PT008H.grib2 2026-05-09 02:41 423K
20260509T00Z_MSC_RDPS_AirTemp_IsbL-0450_RLatLon0.09_PT008H.grib2 2026-05-09 02:41 397K
20260509T00Z_MSC_RDPS_AirTemp_IsbL-0500_RLatLon0.09_PT008H.grib2 2026-05-09 02:41 444K
20260509T00Z_MSC_RDPS_AirTemp_IsbL-0550_RLatLon0.09_PT008H.grib2 2026-05-09 02:41 464K
20260509T00Z_MSC_RDPS_AirTemp_IsbL-0600_RLatLon0.09_PT008H.grib2 2026-05-09 02:41 483K
20260509T00Z_MSC_RDPS_AirTemp_IsbL-0650_RLatLon0.09_PT008H.grib2 2026-05-09 02:41 497K
20260509T00Z_MSC_RDPS_AirTemp_IsbL-0700_RLatLon0.09_PT008H.grib2 2026-05-09 02:41 525K
20260509T00Z_MSC_RDPS_AirTemp_IsbL-0750_RLatLon0.09_PT008H.grib2 2026-05-09 02:41 525K
20260509T00Z_MSC_RDPS_AirTemp_IsbL-0800_RLatLon0.09_PT008H.grib2 2026-05-09 02:41 577K
20260509T00Z_MSC_RDPS_AirTemp_IsbL-0850_RLatLon0.09_PT008H.grib2 2026-05-09 02:41 627K
20260509T00Z_MSC_RDPS_AirTemp_IsbL-0875_RLatLon0.09_PT008H.grib2 2026-05-09 02:41 515K
20260509T00Z_MSC_RDPS_AirTemp_IsbL-0900_RLatLon0.09_PT008H.grib2 2026-05-09 02:41 650K
20260509T00Z_MSC_RDPS_AirTemp_IsbL-0925_RLatLon0.09_PT008H.grib2 2026-05-09 02:41 521K
20260509T00Z_MSC_RDPS_AirTemp_IsbL-0950_RLatLon0.09_PT008H.grib2 2026-05-09 02:41 526K
20260509T00Z_MSC_RDPS_AirTemp_IsbL-0970_RLatLon0.09_PT008H.grib2 2026-05-09 02:41 517K
20260509T00Z_MSC_RDPS_AirTemp_IsbL-0985_RLatLon0.09_PT008H.grib2 2026-05-09 02:41 499K
20260509T00Z_MSC_RDPS_AirTemp_IsbL-1000_RLatLon0.09_PT008H.grib2 2026-05-09 02:41 486K
20260509T00Z_MSC_RDPS_AirTemp_IsbL-1015_RLatLon0.09_PT008H.grib2 2026-05-09 02:41 488K
20260509T00Z_MSC_RDPS_Albedo_Sfc_RLatLon0.09_PT008H.grib2 2026-05-09 02:41 159K
20260509T00Z_MSC_RDPS_CAPE_Sfc_RLatLon0.09_PT008H.grib2 2026-05-09 02:41 1.6M
20260509T00Z_MSC_RDPS_CIN_Sfc_RLatLon0.09_PT008H.grib2 2026-05-09 02:41 1.2M
20260509T00Z_MSC_RDPS_CloudWater_EAtm_RLatLon0.09_PT008H.grib2 2026-05-09 02:41 222K
20260509T00Z_MSC_RDPS_ConvectivePrecip-Accum_Sfc_RLatLon0.09_PT008H.grib2 2026-05-09 02:41 541K
20260509T00Z_MSC_RDPS_DewPointDepression_AGL-2m_RLatLon0.09_PT008H.grib2 2026-05-09 02:41 397K
20260509T00Z_MSC_RDPS_DewPointDepression_IsbL-0001_RLatLon0.09_PT008H.grib2 2026-05-09 02:41 193
20260509T00Z_MSC_RDPS_DewPointDepression_IsbL-0005_RLatLon0.09_PT008H.grib2 2026-05-09 02:41 193
20260509T00Z_MSC_RDPS_DewPointDepression_IsbL-0010_RLatLon0.09_PT008H.grib2 2026-05-09 02:41 193
20260509T00Z_MSC_RDPS_DewPointDepression_IsbL-0020_RLatLon0.09_PT008H.grib2 2026-05-09 02:41 193
20260509T00Z_MSC_RDPS_DewPointDepression_IsbL-0030_RLatLon0.09_PT008H.grib2 2026-05-09 02:41 193
20260509T00Z_MSC_RDPS_DewPointDepression_IsbL-0050_RLatLon0.09_PT008H.grib2 2026-05-09 02:41 81K
20260509T00Z_MSC_RDPS_DewPointDepression_IsbL-0100_RLatLon0.09_PT008H.grib2 2026-05-09 02:41 112K
20260509T00Z_MSC_RDPS_DewPointDepression_IsbL-0150_RLatLon0.09_PT008H.grib2 2026-05-09 02:41 144K
20260509T00Z_MSC_RDPS_DewPointDepression_IsbL-0175_RLatLon0.09_PT008H.grib2 2026-05-09 02:41 173K
20260509T00Z_MSC_RDPS_DewPointDepression_IsbL-0200_RLatLon0.09_PT008H.grib2 2026-05-09 02:41 217K
20260509T00Z_MSC_RDPS_DewPointDepression_IsbL-0225_RLatLon0.09_PT008H.grib2 2026-05-09 02:41 259K
20260509T00Z_MSC_RDPS_DewPointDepression_IsbL-0250_RLatLon0.09_PT008H.grib2 2026-05-09 02:41 304K
20260509T00Z_MSC_RDPS_DewPointDepression_IsbL-0275_RLatLon0.09_PT008H.grib2 2026-05-09 02:41 309K
20260509T00Z_MSC_RDPS_DewPointDepression_IsbL-0300_RLatLon0.09_PT008H.grib2 2026-05-09 02:41 319K
20260509T00Z_MSC_RDPS_DewPointDepression_IsbL-0350_RLatLon0.09_PT008H.grib2 2026-05-09 02:41 319K
20260509T00Z_MSC_RDPS_DewPointDepression_IsbL-0400_RLatLon0.09_PT008H.grib2 2026-05-09 02:41 326K
20260509T00Z_MSC_RDPS_DewPointDepression_IsbL-0450_RLatLon0.09_PT008H.grib2 2026-05-09 02:41 328K
20260509T00Z_MSC_RDPS_DewPointDepression_IsbL-0500_RLatLon0.09_PT008H.grib2 2026-05-09 02:41 332K
20260509T00Z_MSC_RDPS_DewPointDepression_IsbL-0550_RLatLon0.09_PT008H.grib2 2026-05-09 02:41 346K
20260509T00Z_MSC_RDPS_DewPointDepression_IsbL-0600_RLatLon0.09_PT008H.grib2 2026-05-09 02:41 364K
20260509T00Z_MSC_RDPS_DewPointDepression_IsbL-0650_RLatLon0.09_PT008H.grib2 2026-05-09 02:41 374K
20260509T00Z_MSC_RDPS_DewPointDepression_IsbL-0700_RLatLon0.09_PT008H.grib2 2026-05-09 02:41 385K
20260509T00Z_MSC_RDPS_DewPointDepression_IsbL-0750_RLatLon0.09_PT008H.grib2 2026-05-09 02:41 404K
20260509T00Z_MSC_RDPS_DewPointDepression_IsbL-0800_RLatLon0.09_PT008H.grib2 2026-05-09 02:41 443K
20260509T00Z_MSC_RDPS_DewPointDepression_IsbL-0850_RLatLon0.09_PT008H.grib2 2026-05-09 02:41 471K
20260509T00Z_MSC_RDPS_DewPointDepression_IsbL-0875_RLatLon0.09_PT008H.grib2 2026-05-09 02:41 466K
20260509T00Z_MSC_RDPS_DewPointDepression_IsbL-0900_RLatLon0.09_PT008H.grib2 2026-05-09 02:41 455K
20260509T00Z_MSC_RDPS_DewPointDepression_IsbL-0925_RLatLon0.09_PT008H.grib2 2026-05-09 02:41 444K
20260509T00Z_MSC_RDPS_DewPointDepression_IsbL-0950_RLatLon0.09_PT008H.grib2 2026-05-09 02:41 437K
20260509T00Z_MSC_RDPS_DewPointDepression_IsbL-0970_RLatLon0.09_PT008H.grib2 2026-05-09 02:41 429K
20260509T00Z_MSC_RDPS_DewPointDepression_IsbL-0985_RLatLon0.09_PT008H.grib2 2026-05-09 02:41 423K
20260509T00Z_MSC_RDPS_DewPointDepression_IsbL-1000_RLatLon0.09_PT008H.grib2 2026-05-09 02:41 419K
20260509T00Z_MSC_RDPS_DewPointDepression_IsbL-1015_RLatLon0.09_PT008H.grib2 2026-05-09 02:41 410K
20260509T00Z_MSC_RDPS_DewPoint_AGL-2m_RLatLon0.09_PT008H.grib2 2026-05-09 02:41 388K
20260509T00Z_MSC_RDPS_DownwardLongwaveRadiationFlux-Accum_Sfc_RLatLon0.09_PT008H.grib2 2026-05-09 02:41 543K
20260509T00Z_MSC_RDPS_DownwardShortwaveRadiationFlux-Accum_NTAtm_RLatLon0.09_PT008H.grib2 2026-05-09 02:41 92K
20260509T00Z_MSC_RDPS_DownwardShortwaveRadiationFlux-Accum_Sfc_RLatLon0.09_PT008H.grib2 2026-05-09 02:41 282K
20260509T00Z_MSC_RDPS_FreezingRain-Accum1h_Sfc_RLatLon0.09_PT008H.grib2 2026-05-09 02:41 42K
20260509T00Z_MSC_RDPS_FreezingRain-Accum_Sfc_RLatLon0.09_PT008H.grib2 2026-05-09 02:41 77K
20260509T00Z_MSC_RDPS_GeopotentialHeight_IsbL-0001_RLatLon0.09_PT008H.grib2 2026-05-09 02:41 309K
20260509T00Z_MSC_RDPS_GeopotentialHeight_IsbL-0005_RLatLon0.09_PT008H.grib2 2026-05-09 02:41 335K
20260509T00Z_MSC_RDPS_GeopotentialHeight_IsbL-0010_RLatLon0.09_PT008H.grib2 2026-05-09 02:41 337K
20260509T00Z_MSC_RDPS_GeopotentialHeight_IsbL-0020_RLatLon0.09_PT008H.grib2 2026-05-09 02:41 302K
20260509T00Z_MSC_RDPS_GeopotentialHeight_IsbL-0030_RLatLon0.09_PT008H.grib2 2026-05-09 02:41 304K
20260509T00Z_MSC_RDPS_GeopotentialHeight_IsbL-0050_RLatLon0.09_PT008H.grib2 2026-05-09 02:41 306K
20260509T00Z_MSC_RDPS_GeopotentialHeight_IsbL-0100_RLatLon0.09_PT008H.grib2 2026-05-09 02:41 285K
20260509T00Z_MSC_RDPS_GeopotentialHeight_IsbL-0150_RLatLon0.09_PT008H.grib2 2026-05-09 02:41 227K
20260509T00Z_MSC_RDPS_GeopotentialHeight_IsbL-0175_RLatLon0.09_PT008H.grib2 2026-05-09 02:41 230K
20260509T00Z_MSC_RDPS_GeopotentialHeight_IsbL-0200_RLatLon0.09_PT008H.grib2 2026-05-09 02:41 263K
20260509T00Z_MSC_RDPS_GeopotentialHeight_IsbL-0225_RLatLon0.09_PT008H.grib2 2026-05-09 02:41 265K
20260509T00Z_MSC_RDPS_GeopotentialHeight_IsbL-0250_RLatLon0.09_PT008H.grib2 2026-05-09 02:41 267K
20260509T00Z_MSC_RDPS_GeopotentialHeight_IsbL-0275_RLatLon0.09_PT008H.grib2 2026-05-09 02:41 267K
20260509T00Z_MSC_RDPS_GeopotentialHeight_IsbL-0300_RLatLon0.09_PT008H.grib2 2026-05-09 02:41 236K
20260509T00Z_MSC_RDPS_GeopotentialHeight_IsbL-0350_RLatLon0.09_PT008H.grib2 2026-05-09 02:41 232K
20260509T00Z_MSC_RDPS_GeopotentialHeight_IsbL-0400_RLatLon0.09_PT008H.grib2 2026-05-09 02:41 228K
20260509T00Z_MSC_RDPS_GeopotentialHeight_IsbL-0450_RLatLon0.09_PT008H.grib2 2026-05-09 02:41 295K
20260509T00Z_MSC_RDPS_GeopotentialHeight_IsbL-0500_RLatLon0.09_PT008H.grib2 2026-05-09 02:41 290K
20260509T00Z_MSC_RDPS_GeopotentialHeight_IsbL-0550_RLatLon0.09_PT008H.grib2 2026-05-09 02:41 286K
20260509T00Z_MSC_RDPS_GeopotentialHeight_IsbL-0600_RLatLon0.09_PT008H.grib2 2026-05-09 02:41 283K
20260509T00Z_MSC_RDPS_GeopotentialHeight_IsbL-0650_RLatLon0.09_PT008H.grib2 2026-05-09 02:41 255K
20260509T00Z_MSC_RDPS_GeopotentialHeight_IsbL-0700_RLatLon0.09_PT008H.grib2 2026-05-09 02:41 254K
20260509T00Z_MSC_RDPS_GeopotentialHeight_IsbL-0750_RLatLon0.09_PT008H.grib2 2026-05-09 02:41 339K
20260509T00Z_MSC_RDPS_GeopotentialHeight_IsbL-0800_RLatLon0.09_PT008H.grib2 2026-05-09 02:41 347K
20260509T00Z_MSC_RDPS_GeopotentialHeight_IsbL-0850_RLatLon0.09_PT008H.grib2 2026-05-09 02:41 357K
20260509T00Z_MSC_RDPS_GeopotentialHeight_IsbL-0875_RLatLon0.09_PT008H.grib2 2026-05-09 02:41 359K
20260509T00Z_MSC_RDPS_GeopotentialHeight_IsbL-0900_RLatLon0.09_PT008H.grib2 2026-05-09 02:41 362K
20260509T00Z_MSC_RDPS_GeopotentialHeight_IsbL-0925_RLatLon0.09_PT008H.grib2 2026-05-09 02:41 364K
20260509T00Z_MSC_RDPS_GeopotentialHeight_IsbL-0950_RLatLon0.09_PT008H.grib2 2026-05-09 02:41 370K
20260509T00Z_MSC_RDPS_GeopotentialHeight_IsbL-0970_RLatLon0.09_PT008H.grib2 2026-05-09 02:41 375K
20260509T00Z_MSC_RDPS_GeopotentialHeight_IsbL-0985_RLatLon0.09_PT008H.grib2 2026-05-09 02:41 383K
20260509T00Z_MSC_RDPS_GeopotentialHeight_IsbL-1000_RLatLon0.09_PT008H.grib2 2026-05-09 02:41 394K
20260509T00Z_MSC_RDPS_GeopotentialHeight_IsbL-1015_RLatLon0.09_PT008H.grib2 2026-05-09 02:41 408K
20260509T00Z_MSC_RDPS_HighLowPressure_MSL_RLatLon0.09_PT008H.json 2026-05-09 02:33 19K
20260509T00Z_MSC_RDPS_Humidex_Sfc_RLatLon0.09_PT008H.grib2 2026-05-09 02:41 2.4M
20260509T00Z_MSC_RDPS_IcePellets-Accum1h_Sfc_RLatLon0.09_PT008H.grib2 2026-05-09 02:41 6.2K
20260509T00Z_MSC_RDPS_IcePellets-Accum_Sfc_RLatLon0.09_PT008H.grib2 2026-05-09 02:41 11K
20260509T00Z_MSC_RDPS_KIndex_Sfc_RLatLon0.09_PT008H.grib2 2026-05-09 02:41 2.4M
20260509T00Z_MSC_RDPS_LatentHeatNetFlux_Sfc_RLatLon0.09_PT008H.grib2 2026-05-09 02:41 316K
20260509T00Z_MSC_RDPS_LiftedIndex-MU-VT_IsbL-0500_RLatLon0.09_PT008H.grib2 2026-05-09 02:41 2.4M
20260509T00Z_MSC_RDPS_NetLongwaveRadiationFlux-Accum_Sfc_RLatLon0.09_PT008H.grib2 2026-05-09 02:41 542K
20260509T00Z_MSC_RDPS_NetShortwaveRadiationFlux-Accum_Sfc_RLatLon0.09_PT008H.grib2 2026-05-09 02:41 350K
20260509T00Z_MSC_RDPS_PlanetaryBoundaryLayerHeight_Sfc_RLatLon0.09_PT008H.grib2 2026-05-09 02:41 1.1M
20260509T00Z_MSC_RDPS_Precip-Accum1h_Sfc_RLatLon0.09_PT008H.grib2 2026-05-09 02:41 1.2M
20260509T00Z_MSC_RDPS_Precip-Accum_Sfc_RLatLon0.09_PT008H.grib2 2026-05-09 02:41 1.4M
20260509T00Z_MSC_RDPS_PrecipRate_Sfc_RLatLon0.09_PT008H.grib2 2026-05-09 02:41 164K
20260509T00Z_MSC_RDPS_PrecipType-Instant_Sfc_RLatLon0.09_PT008H.grib2 2026-05-09 02:41 572K
20260509T00Z_MSC_RDPS_Pressure-Trend3h_Sfc_RLatLon0.09_PT008H.grib2 2026-05-09 02:41 1.2M
20260509T00Z_MSC_RDPS_Pressure_MSL_RLatLon0.09_PT008H.grib2 2026-05-09 02:41 325K
20260509T00Z_MSC_RDPS_Pressure_PVU-1.5_RLatLon0.09_PT008H.grib2 2026-05-09 02:41 2.3M
20260509T00Z_MSC_RDPS_Pressure_PVU-1_RLatLon0.09_PT008H.grib2 2026-05-09 02:41 2.4M
20260509T00Z_MSC_RDPS_Pressure_PVU-2_RLatLon0.09_PT008H.grib2 2026-05-09 02:41 2.4M
20260509T00Z_MSC_RDPS_Pressure_Sfc_RLatLon0.09_PT008H.grib2 2026-05-09 02:41 499K
20260509T00Z_MSC_RDPS_RadiativeTemp_Sfc_RLatLon0.09_PT008H.grib2 2026-05-09 02:41 385K
20260509T00Z_MSC_RDPS_Rain-Accum1h_Sfc_RLatLon0.09_PT008H.grib2 2026-05-09 02:41 554K
20260509T00Z_MSC_RDPS_Rain-Accum_Sfc_RLatLon0.09_PT008H.grib2 2026-05-09 02:41 1.1M
20260509T00Z_MSC_RDPS_RelativeHumidity_AGL-2m_RLatLon0.09_PT008H.grib2 2026-05-09 02:41 1.0M
20260509T00Z_MSC_RDPS_RelativeHumidity_IsbL-0010_RLatLon0.09_PT008H.grib2 2026-05-09 02:41 396K
20260509T00Z_MSC_RDPS_RelativeHumidity_IsbL-0020_RLatLon0.09_PT008H.grib2 2026-05-09 02:41 556K
20260509T00Z_MSC_RDPS_RelativeHumidity_IsbL-0030_RLatLon0.09_PT008H.grib2 2026-05-09 02:41 625K
20260509T00Z_MSC_RDPS_RelativeHumidity_IsbL-0050_RLatLon0.09_PT008H.grib2 2026-05-09 02:41 356K
20260509T00Z_MSC_RDPS_RelativeHumidity_IsbL-0100_RLatLon0.09_PT008H.grib2 2026-05-09 02:41 276K
20260509T00Z_MSC_RDPS_RelativeHumidity_IsbL-0150_RLatLon0.09_PT008H.grib2 2026-05-09 02:41 413K
20260509T00Z_MSC_RDPS_RelativeHumidity_IsbL-0175_RLatLon0.09_PT008H.grib2 2026-05-09 02:41 468K
20260509T00Z_MSC_RDPS_RelativeHumidity_IsbL-0200_RLatLon0.09_PT008H.grib2 2026-05-09 02:41 544K
20260509T00Z_MSC_RDPS_RelativeHumidity_IsbL-0225_RLatLon0.09_PT008H.grib2 2026-05-09 02:41 614K
20260509T00Z_MSC_RDPS_RelativeHumidity_IsbL-0250_RLatLon0.09_PT008H.grib2 2026-05-09 02:41 688K
20260509T00Z_MSC_RDPS_RelativeHumidity_IsbL-0275_RLatLon0.09_PT008H.grib2 2026-05-09 02:41 715K
20260509T00Z_MSC_RDPS_RelativeHumidity_IsbL-0300_RLatLon0.09_PT008H.grib2 2026-05-09 02:41 751K
20260509T00Z_MSC_RDPS_RelativeHumidity_IsbL-0350_RLatLon0.09_PT008H.grib2 2026-05-09 02:41 756K
20260509T00Z_MSC_RDPS_RelativeHumidity_IsbL-0400_RLatLon0.09_PT008H.grib2 2026-05-09 02:41 768K
20260509T00Z_MSC_RDPS_RelativeHumidity_IsbL-0450_RLatLon0.09_PT008H.grib2 2026-05-09 02:41 777K
20260509T00Z_MSC_RDPS_RelativeHumidity_IsbL-0500_RLatLon0.09_PT008H.grib2 2026-05-09 02:41 795K
20260509T00Z_MSC_RDPS_RelativeHumidity_IsbL-0550_RLatLon0.09_PT008H.grib2 2026-05-09 02:41 812K
20260509T00Z_MSC_RDPS_RelativeHumidity_IsbL-0600_RLatLon0.09_PT008H.grib2 2026-05-09 02:41 835K
20260509T00Z_MSC_RDPS_RelativeHumidity_IsbL-0650_RLatLon0.09_PT008H.grib2 2026-05-09 02:41 856K
20260509T00Z_MSC_RDPS_RelativeHumidity_IsbL-0700_RLatLon0.09_PT008H.grib2 2026-05-09 02:41 881K
20260509T00Z_MSC_RDPS_RelativeHumidity_IsbL-0750_RLatLon0.09_PT008H.grib2 2026-05-09 02:41 926K
20260509T00Z_MSC_RDPS_RelativeHumidity_IsbL-0800_RLatLon0.09_PT008H.grib2 2026-05-09 02:41 1.0M
20260509T00Z_MSC_RDPS_RelativeHumidity_IsbL-0850_RLatLon0.09_PT008H.grib2 2026-05-09 02:41 1.0M
20260509T00Z_MSC_RDPS_RelativeHumidity_IsbL-0875_RLatLon0.09_PT008H.grib2 2026-05-09 02:41 1.0M
20260509T00Z_MSC_RDPS_RelativeHumidity_IsbL-0900_RLatLon0.09_PT008H.grib2 2026-05-09 02:41 1.1M
20260509T00Z_MSC_RDPS_RelativeHumidity_IsbL-0925_RLatLon0.09_PT008H.grib2 2026-05-09 02:41 1.1M
20260509T00Z_MSC_RDPS_RelativeHumidity_IsbL-0950_RLatLon0.09_PT008H.grib2 2026-05-09 02:41 1.1M
20260509T00Z_MSC_RDPS_RelativeHumidity_IsbL-0970_RLatLon0.09_PT008H.grib2 2026-05-09 02:41 1.0M
20260509T00Z_MSC_RDPS_RelativeHumidity_IsbL-0985_RLatLon0.09_PT008H.grib2 2026-05-09 02:41 1.0M
20260509T00Z_MSC_RDPS_RelativeHumidity_IsbL-1000_RLatLon0.09_PT008H.grib2 2026-05-09 02:41 1.0M
20260509T00Z_MSC_RDPS_RelativeHumidity_IsbL-1015_RLatLon0.09_PT008H.grib2 2026-05-09 02:41 1.0M
20260509T00Z_MSC_RDPS_Runoff-Accum_Sfc_RLatLon0.09_PT008H.grib2 2026-05-09 02:41 41K
20260509T00Z_MSC_RDPS_SWEATIndex_Sfc_RLatLon0.09_PT008H.grib2 2026-05-09 02:41 2.4M
20260509T00Z_MSC_RDPS_SeeingIndex_EAtm_RLatLon0.09_PT008H.grib2 2026-05-09 02:41 1.0M
20260509T00Z_MSC_RDPS_SensibleHeatNetFlux_Sfc_RLatLon0.09_PT008H.grib2 2026-05-09 02:41 214K
20260509T00Z_MSC_RDPS_ShowalterIndex_IsbL-0500_RLatLon0.09_PT008H.grib2 2026-05-09 02:41 2.6M
20260509T00Z_MSC_RDPS_SkyTransparencyIndex_EAtm_RLatLon0.09_PT008H.grib2 2026-05-09 02:41 682K
20260509T00Z_MSC_RDPS_Snow-Accum1h_Sfc_RLatLon0.09_PT008H.grib2 2026-05-09 02:41 319K
20260509T00Z_MSC_RDPS_Snow-Accum_Sfc_RLatLon0.09_PT008H.grib2 2026-05-09 02:41 518K
20260509T00Z_MSC_RDPS_SnowDensity_Sfc_RLatLon0.09_PT008H.grib2 2026-05-09 02:41 164K
20260509T00Z_MSC_RDPS_SnowDepth_Sfc_RLatLon0.09_PT008H.grib2 2026-05-09 02:41 617K
20260509T00Z_MSC_RDPS_SoilTemp_DBS-0to10cm_RLatLon0.09_PT008H.grib2 2026-05-09 02:41 204K
20260509T00Z_MSC_RDPS_SoilTemp_Sfc_RLatLon0.09_PT008H.grib2 2026-05-09 02:41 268K
20260509T00Z_MSC_RDPS_SoilVolumetricIceContent_Sfc_RLatLon0.09_PT008H.grib2 2026-05-09 02:41 145K
20260509T00Z_MSC_RDPS_SoilVolumetricWaterContent_DBS-0to10cm_RLatLon0.09_PT008H.grib2 2026-05-09 02:41 287K
20260509T00Z_MSC_RDPS_SoilVolumetricWaterContent_DBS-0to1cm_RLatLon0.09_PT008H.grib2 2026-05-09 02:41 337K
20260509T00Z_MSC_RDPS_SpecificHumidity_AGL-120m_RLatLon0.09_PT008H.grib2 2026-05-09 02:41 488K
20260509T00Z_MSC_RDPS_SpecificHumidity_AGL-2m_RLatLon0.09_PT008H.grib2 2026-05-09 02:41 656K
20260509T00Z_MSC_RDPS_SpecificHumidity_AGL-40m_RLatLon0.09_PT008H.grib2 2026-05-09 02:41 494K
20260509T00Z_MSC_RDPS_SpecificHumidity_AGL-80m_RLatLon0.09_PT008H.grib2 2026-05-09 02:41 490K
20260509T00Z_MSC_RDPS_SpecificHumidity_IsbL-0001_RLatLon0.09_PT008H.grib2 2026-05-09 02:41 355K
20260509T00Z_MSC_RDPS_SpecificHumidity_IsbL-0005_RLatLon0.09_PT008H.grib2 2026-05-09 02:41 369K
20260509T00Z_MSC_RDPS_SpecificHumidity_IsbL-0010_RLatLon0.09_PT008H.grib2 2026-05-09 02:41 398K
20260509T00Z_MSC_RDPS_SpecificHumidity_IsbL-0020_RLatLon0.09_PT008H.grib2 2026-05-09 02:41 379K
20260509T00Z_MSC_RDPS_SpecificHumidity_IsbL-0030_RLatLon0.09_PT008H.grib2 2026-05-09 02:41 372K
20260509T00Z_MSC_RDPS_SpecificHumidity_IsbL-0050_RLatLon0.09_PT008H.grib2 2026-05-09 02:41 482K
20260509T00Z_MSC_RDPS_SpecificHumidity_IsbL-0100_RLatLon0.09_PT008H.grib2 2026-05-09 02:41 418K
20260509T00Z_MSC_RDPS_SpecificHumidity_IsbL-0150_RLatLon0.09_PT008H.grib2 2026-05-09 02:41 480K
20260509T00Z_MSC_RDPS_SpecificHumidity_IsbL-0175_RLatLon0.09_PT008H.grib2 2026-05-09 02:41 436K
20260509T00Z_MSC_RDPS_SpecificHumidity_IsbL-0200_RLatLon0.09_PT008H.grib2 2026-05-09 02:41 472K
20260509T00Z_MSC_RDPS_SpecificHumidity_IsbL-0225_RLatLon0.09_PT008H.grib2 2026-05-09 02:41 477K
20260509T00Z_MSC_RDPS_SpecificHumidity_IsbL-0250_RLatLon0.09_PT008H.grib2 2026-05-09 02:41 435K
20260509T00Z_MSC_RDPS_SpecificHumidity_IsbL-0275_RLatLon0.09_PT008H.grib2 2026-05-09 02:41 487K
20260509T00Z_MSC_RDPS_SpecificHumidity_IsbL-0300_RLatLon0.09_PT008H.grib2 2026-05-09 02:41 455K
20260509T00Z_MSC_RDPS_SpecificHumidity_IsbL-0350_RLatLon0.09_PT008H.grib2 2026-05-09 02:41 438K
20260509T00Z_MSC_RDPS_SpecificHumidity_IsbL-0400_RLatLon0.09_PT008H.grib2 2026-05-09 02:41 516K
20260509T00Z_MSC_RDPS_SpecificHumidity_IsbL-0450_RLatLon0.09_PT008H.grib2 2026-05-09 02:41 453K
20260509T00Z_MSC_RDPS_SpecificHumidity_IsbL-0500_RLatLon0.09_PT008H.grib2 2026-05-09 02:41 504K
20260509T00Z_MSC_RDPS_SpecificHumidity_IsbL-0550_RLatLon0.09_PT008H.grib2 2026-05-09 02:41 575K
20260509T00Z_MSC_RDPS_SpecificHumidity_IsbL-0600_RLatLon0.09_PT008H.grib2 2026-05-09 02:41 628K
20260509T00Z_MSC_RDPS_SpecificHumidity_IsbL-0650_RLatLon0.09_PT008H.grib2 2026-05-09 02:41 550K
20260509T00Z_MSC_RDPS_SpecificHumidity_IsbL-0700_RLatLon0.09_PT008H.grib2 2026-05-09 02:41 598K
20260509T00Z_MSC_RDPS_SpecificHumidity_IsbL-0750_RLatLon0.09_PT008H.grib2 2026-05-09 02:41 655K
20260509T00Z_MSC_RDPS_SpecificHumidity_IsbL-0800_RLatLon0.09_PT008H.grib2 2026-05-09 02:41 743K
20260509T00Z_MSC_RDPS_SpecificHumidity_IsbL-0850_RLatLon0.09_PT008H.grib2 2026-05-09 02:41 812K
20260509T00Z_MSC_RDPS_SpecificHumidity_IsbL-0875_RLatLon0.09_PT008H.grib2 2026-05-09 02:41 831K
20260509T00Z_MSC_RDPS_SpecificHumidity_IsbL-0900_RLatLon0.09_PT008H.grib2 2026-05-09 02:41 842K
20260509T00Z_MSC_RDPS_SpecificHumidity_IsbL-0925_RLatLon0.09_PT008H.grib2 2026-05-09 02:41 842K
20260509T00Z_MSC_RDPS_SpecificHumidity_IsbL-0950_RLatLon0.09_PT008H.grib2 2026-05-09 02:41 843K
20260509T00Z_MSC_RDPS_SpecificHumidity_IsbL-0970_RLatLon0.09_PT008H.grib2 2026-05-09 02:41 694K
20260509T00Z_MSC_RDPS_SpecificHumidity_IsbL-0985_RLatLon0.09_PT008H.grib2 2026-05-09 02:41 685K
20260509T00Z_MSC_RDPS_SpecificHumidity_IsbL-1000_RLatLon0.09_PT008H.grib2 2026-05-09 02:41 678K
20260509T00Z_MSC_RDPS_SpecificHumidity_IsbL-1015_RLatLon0.09_PT008H.grib2 2026-05-09 02:41 669K
20260509T00Z_MSC_RDPS_SpecificHumidity_Sfc_RLatLon0.09_PT008H.grib2 2026-05-09 02:41 297K
20260509T00Z_MSC_RDPS_StormRelativeHelicity_EtaL-10000_RLatLon0.09_PT008H.grib2 2026-05-09 02:41 1.1M
20260509T00Z_MSC_RDPS_StormSeverityIndex_EtaL-10000_RLatLon0.09_PT008H.grib2 2026-05-09 02:41 1.2M
20260509T00Z_MSC_RDPS_Thickness_IsbL-0850to0700_RLatLon0.09_PT008H.grib2 2026-05-09 02:41 250K
20260509T00Z_MSC_RDPS_Thickness_IsbL-1000to0500_RLatLon0.09_PT008H.grib2 2026-05-09 02:41 195K
20260509T00Z_MSC_RDPS_Thickness_IsbL-1000to0850_RLatLon0.09_PT008H.grib2 2026-05-09 02:41 260K
20260509T00Z_MSC_RDPS_TotalCloudCover_Sfc_RLatLon0.09_PT008H.grib2 2026-05-09 02:41 657K
20260509T00Z_MSC_RDPS_TotalTotalsIndex_Sfc_RLatLon0.09_PT008H.grib2 2026-05-09 02:41 2.4M
20260509T00Z_MSC_RDPS_UVIndex-ClearSky_Sfc_RLatLon0.09_PT008H.grib2 2026-05-09 02:41 109K
20260509T00Z_MSC_RDPS_UVIndex_Sfc_RLatLon0.09_PT008H.grib2 2026-05-09 02:41 193K
20260509T00Z_MSC_RDPS_UpwardLongwaveRadiationFlux_NTAtm_RLatLon0.09_PT008H.grib2 2026-05-09 02:41 490K
20260509T00Z_MSC_RDPS_UpwardShortwaveRadiationFlux_NTAtm_RLatLon0.09_PT008H.grib2 2026-05-09 02:41 158K
20260509T00Z_MSC_RDPS_VerticalVelocity_IsbL-0250_RLatLon0.09_PT008H.grib2 2026-05-09 02:41 451K
20260509T00Z_MSC_RDPS_VerticalVelocity_IsbL-0500_RLatLon0.09_PT008H.grib2 2026-05-09 02:41 533K
20260509T00Z_MSC_RDPS_VerticalVelocity_IsbL-0700_RLatLon0.09_PT008H.grib2 2026-05-09 02:41 595K
20260509T00Z_MSC_RDPS_VerticalVelocity_IsbL-0850_RLatLon0.09_PT008H.grib2 2026-05-09 02:41 700K
20260509T00Z_MSC_RDPS_VerticalWindShear_EtaL-6500_RLatLon0.09_PT008H.grib2 2026-05-09 02:41 1.2M
20260509T00Z_MSC_RDPS_WindChill_Sfc_RLatLon0.09_PT008H.grib2 2026-05-09 02:41 1.2M
20260509T00Z_MSC_RDPS_WindDir_AGL-10m_RLatLon0.09_PT008H.grib2 2026-05-09 02:41 968K
20260509T00Z_MSC_RDPS_WindDir_AGL-120m_RLatLon0.09_PT008H.grib2 2026-05-09 02:41 598K
20260509T00Z_MSC_RDPS_WindDir_AGL-40m_RLatLon0.09_PT008H.grib2 2026-05-09 02:41 633K
20260509T00Z_MSC_RDPS_WindDir_AGL-80m_RLatLon0.09_PT008H.grib2 2026-05-09 02:41 612K
20260509T00Z_MSC_RDPS_WindDir_IsbL-0001_RLatLon0.09_PT008H.grib2 2026-05-09 02:41 305K
20260509T00Z_MSC_RDPS_WindDir_IsbL-0005_RLatLon0.09_PT008H.grib2 2026-05-09 02:41 367K
20260509T00Z_MSC_RDPS_WindDir_IsbL-0010_RLatLon0.09_PT008H.grib2 2026-05-09 02:41 380K
20260509T00Z_MSC_RDPS_WindDir_IsbL-0020_RLatLon0.09_PT008H.grib2 2026-05-09 02:41 396K
20260509T00Z_MSC_RDPS_WindDir_IsbL-0030_RLatLon0.09_PT008H.grib2 2026-05-09 02:41 406K
20260509T00Z_MSC_RDPS_WindDir_IsbL-0050_RLatLon0.09_PT008H.grib2 2026-05-09 02:41 428K
20260509T00Z_MSC_RDPS_WindDir_IsbL-0100_RLatLon0.09_PT008H.grib2 2026-05-09 02:41 414K
20260509T00Z_MSC_RDPS_WindDir_IsbL-0150_RLatLon0.09_PT008H.grib2 2026-05-09 02:41 430K
20260509T00Z_MSC_RDPS_WindDir_IsbL-0175_RLatLon0.09_PT008H.grib2 2026-05-09 02:41 448K
20260509T00Z_MSC_RDPS_WindDir_IsbL-0200_RLatLon0.09_PT008H.grib2 2026-05-09 02:41 462K
20260509T00Z_MSC_RDPS_WindDir_IsbL-0225_RLatLon0.09_PT008H.grib2 2026-05-09 02:41 467K
20260509T00Z_MSC_RDPS_WindDir_IsbL-0250_RLatLon0.09_PT008H.grib2 2026-05-09 02:41 464K
20260509T00Z_MSC_RDPS_WindDir_IsbL-0275_RLatLon0.09_PT008H.grib2 2026-05-09 02:41 487K
20260509T00Z_MSC_RDPS_WindDir_IsbL-0300_RLatLon0.09_PT008H.grib2 2026-05-09 02:41 482K
20260509T00Z_MSC_RDPS_WindDir_IsbL-0350_RLatLon0.09_PT008H.grib2 2026-05-09 02:41 507K
20260509T00Z_MSC_RDPS_WindDir_IsbL-0400_RLatLon0.09_PT008H.grib2 2026-05-09 02:41 521K
20260509T00Z_MSC_RDPS_WindDir_IsbL-0450_RLatLon0.09_PT008H.grib2 2026-05-09 02:41 538K
20260509T00Z_MSC_RDPS_WindDir_IsbL-0500_RLatLon0.09_PT008H.grib2 2026-05-09 02:41 567K
20260509T00Z_MSC_RDPS_WindDir_IsbL-0550_RLatLon0.09_PT008H.grib2 2026-05-09 02:41 577K
20260509T00Z_MSC_RDPS_WindDir_IsbL-0600_RLatLon0.09_PT008H.grib2 2026-05-09 02:41 596K
20260509T00Z_MSC_RDPS_WindDir_IsbL-0650_RLatLon0.09_PT008H.grib2 2026-05-09 02:41 634K
20260509T00Z_MSC_RDPS_WindDir_IsbL-0700_RLatLon0.09_PT008H.grib2 2026-05-09 02:41 675K
20260509T00Z_MSC_RDPS_WindDir_IsbL-0750_RLatLon0.09_PT008H.grib2 2026-05-09 02:41 723K
20260509T00Z_MSC_RDPS_WindDir_IsbL-0800_RLatLon0.09_PT008H.grib2 2026-05-09 02:41 785K
20260509T00Z_MSC_RDPS_WindDir_IsbL-0850_RLatLon0.09_PT008H.grib2 2026-05-09 02:41 849K
20260509T00Z_MSC_RDPS_WindDir_IsbL-0875_RLatLon0.09_PT008H.grib2 2026-05-09 02:41 868K
20260509T00Z_MSC_RDPS_WindDir_IsbL-0900_RLatLon0.09_PT008H.grib2 2026-05-09 02:41 883K
20260509T00Z_MSC_RDPS_WindDir_IsbL-0925_RLatLon0.09_PT008H.grib2 2026-05-09 02:41 898K
20260509T00Z_MSC_RDPS_WindDir_IsbL-0950_RLatLon0.09_PT008H.grib2 2026-05-09 02:41 910K
20260509T00Z_MSC_RDPS_WindDir_IsbL-0970_RLatLon0.09_PT008H.grib2 2026-05-09 02:41 917K
20260509T00Z_MSC_RDPS_WindDir_IsbL-0985_RLatLon0.09_PT008H.grib2 2026-05-09 02:41 925K
20260509T00Z_MSC_RDPS_WindDir_IsbL-1000_RLatLon0.09_PT008H.grib2 2026-05-09 02:41 941K
20260509T00Z_MSC_RDPS_WindDir_IsbL-1015_RLatLon0.09_PT008H.grib2 2026-05-09 02:41 958K
20260509T00Z_MSC_RDPS_WindGust-Max_AGL-10m_RLatLon0.09_PT008H.grib2 2026-05-09 02:41 1.0M
20260509T00Z_MSC_RDPS_WindGust-Min_AGL-10m_RLatLon0.09_PT008H.grib2 2026-05-09 02:41 973K
20260509T00Z_MSC_RDPS_WindGust_AGL-10m_RLatLon0.09_PT008H.grib2 2026-05-09 02:41 1.0M
20260509T00Z_MSC_RDPS_WindSpeed_AGL-10m_RLatLon0.09_PT008H.grib2 2026-05-09 02:41 842K
20260509T00Z_MSC_RDPS_WindSpeed_AGL-120m_RLatLon0.09_PT008H.grib2 2026-05-09 02:41 542K
20260509T00Z_MSC_RDPS_WindSpeed_AGL-40m_RLatLon0.09_PT008H.grib2 2026-05-09 02:41 675K
20260509T00Z_MSC_RDPS_WindSpeed_AGL-80m_RLatLon0.09_PT008H.grib2 2026-05-09 02:41 543K
20260509T00Z_MSC_RDPS_WindSpeed_IsbL-0001_RLatLon0.09_PT008H.grib2 2026-05-09 02:41 327K
20260509T00Z_MSC_RDPS_WindSpeed_IsbL-0005_RLatLon0.09_PT008H.grib2 2026-05-09 02:41 288K
20260509T00Z_MSC_RDPS_WindSpeed_IsbL-0010_RLatLon0.09_PT008H.grib2 2026-05-09 02:41 386K
20260509T00Z_MSC_RDPS_WindSpeed_IsbL-0020_RLatLon0.09_PT008H.grib2 2026-05-09 02:41 311K
20260509T00Z_MSC_RDPS_WindSpeed_IsbL-0030_RLatLon0.09_PT008H.grib2 2026-05-09 02:41 312K
20260509T00Z_MSC_RDPS_WindSpeed_IsbL-0050_RLatLon0.09_PT008H.grib2 2026-05-09 02:41 336K
20260509T00Z_MSC_RDPS_WindSpeed_IsbL-0100_RLatLon0.09_PT008H.grib2 2026-05-09 02:41 432K
20260509T00Z_MSC_RDPS_WindSpeed_IsbL-0150_RLatLon0.09_PT008H.grib2 2026-05-09 02:41 374K
20260509T00Z_MSC_RDPS_WindSpeed_IsbL-0175_RLatLon0.09_PT008H.grib2 2026-05-09 02:41 419K
20260509T00Z_MSC_RDPS_WindSpeed_IsbL-0200_RLatLon0.09_PT008H.grib2 2026-05-09 02:41 437K
20260509T00Z_MSC_RDPS_WindSpeed_IsbL-0225_RLatLon0.09_PT008H.grib2 2026-05-09 02:41 447K
20260509T00Z_MSC_RDPS_WindSpeed_IsbL-0250_RLatLon0.09_PT008H.grib2 2026-05-09 02:41 451K
20260509T00Z_MSC_RDPS_WindSpeed_IsbL-0275_RLatLon0.09_PT008H.grib2 2026-05-09 02:41 468K
20260509T00Z_MSC_RDPS_WindSpeed_IsbL-0300_RLatLon0.09_PT008H.grib2 2026-05-09 02:41 464K
20260509T00Z_MSC_RDPS_WindSpeed_IsbL-0350_RLatLon0.09_PT008H.grib2 2026-05-09 02:41 474K
20260509T00Z_MSC_RDPS_WindSpeed_IsbL-0400_RLatLon0.09_PT008H.grib2 2026-05-09 02:41 459K
20260509T00Z_MSC_RDPS_WindSpeed_IsbL-0450_RLatLon0.09_PT008H.grib2 2026-05-09 02:41 460K
20260509T00Z_MSC_RDPS_WindSpeed_IsbL-0500_RLatLon0.09_PT008H.grib2 2026-05-09 02:41 581K
20260509T00Z_MSC_RDPS_WindSpeed_IsbL-0550_RLatLon0.09_PT008H.grib2 2026-05-09 02:41 626K
20260509T00Z_MSC_RDPS_WindSpeed_IsbL-0600_RLatLon0.09_PT008H.grib2 2026-05-09 02:41 636K
20260509T00Z_MSC_RDPS_WindSpeed_IsbL-0650_RLatLon0.09_PT008H.grib2 2026-05-09 02:41 658K
20260509T00Z_MSC_RDPS_WindSpeed_IsbL-0700_RLatLon0.09_PT008H.grib2 2026-05-09 02:41 684K
20260509T00Z_MSC_RDPS_WindSpeed_IsbL-0750_RLatLon0.09_PT008H.grib2 2026-05-09 02:41 716K
20260509T00Z_MSC_RDPS_WindSpeed_IsbL-0800_RLatLon0.09_PT008H.grib2 2026-05-09 02:41 766K
20260509T00Z_MSC_RDPS_WindSpeed_IsbL-0850_RLatLon0.09_PT008H.grib2 2026-05-09 02:41 821K
20260509T00Z_MSC_RDPS_WindSpeed_IsbL-0875_RLatLon0.09_PT008H.grib2 2026-05-09 02:41 839K
20260509T00Z_MSC_RDPS_WindSpeed_IsbL-0900_RLatLon0.09_PT008H.grib2 2026-05-09 02:41 854K
20260509T00Z_MSC_RDPS_WindSpeed_IsbL-0925_RLatLon0.09_PT008H.grib2 2026-05-09 02:41 867K
20260509T00Z_MSC_RDPS_WindSpeed_IsbL-0950_RLatLon0.09_PT008H.grib2 2026-05-09 02:41 867K
20260509T00Z_MSC_RDPS_WindSpeed_IsbL-0970_RLatLon0.09_PT008H.grib2 2026-05-09 02:41 865K
20260509T00Z_MSC_RDPS_WindSpeed_IsbL-0985_RLatLon0.09_PT008H.grib2 2026-05-09 02:41 856K
20260509T00Z_MSC_RDPS_WindSpeed_IsbL-1000_RLatLon0.09_PT008H.grib2 2026-05-09 02:41 850K
20260509T00Z_MSC_RDPS_WindSpeed_IsbL-1015_RLatLon0.09_PT008H.grib2 2026-05-09 02:41 842K
20260509T00Z_MSC_RDPS_WindU_AGL-10m_RLatLon0.09_PT008H.grib2 2026-05-09 02:41 431K
20260509T00Z_MSC_RDPS_WindU_AGL-120m_RLatLon0.09_PT008H.grib2 2026-05-09 02:41 536K
20260509T00Z_MSC_RDPS_WindU_AGL-40m_RLatLon0.09_PT008H.grib2 2026-05-09 02:41 539K
20260509T00Z_MSC_RDPS_WindU_AGL-80m_RLatLon0.09_PT008H.grib2 2026-05-09 02:41 537K
20260509T00Z_MSC_RDPS_WindU_IsbL-0001_RLatLon0.09_PT008H.grib2 2026-05-09 02:41 240K
20260509T00Z_MSC_RDPS_WindU_IsbL-0005_RLatLon0.09_PT008H.grib2 2026-05-09 02:41 323K
20260509T00Z_MSC_RDPS_WindU_IsbL-0010_RLatLon0.09_PT008H.grib2 2026-05-09 02:41 287K
20260509T00Z_MSC_RDPS_WindU_IsbL-0020_RLatLon0.09_PT008H.grib2 2026-05-09 02:41 302K
20260509T00Z_MSC_RDPS_WindU_IsbL-0030_RLatLon0.09_PT008H.grib2 2026-05-09 02:41 302K
20260509T00Z_MSC_RDPS_WindU_IsbL-0050_RLatLon0.09_PT008H.grib2 2026-05-09 02:41 331K
20260509T00Z_MSC_RDPS_WindU_IsbL-0100_RLatLon0.09_PT008H.grib2 2026-05-09 02:41 332K
20260509T00Z_MSC_RDPS_WindU_IsbL-0150_RLatLon0.09_PT008H.grib2 2026-05-09 02:41 394K
20260509T00Z_MSC_RDPS_WindU_IsbL-0175_RLatLon0.09_PT008H.grib2 2026-05-09 02:41 416K
20260509T00Z_MSC_RDPS_WindU_IsbL-0200_RLatLon0.09_PT008H.grib2 2026-05-09 02:41 431K
20260509T00Z_MSC_RDPS_WindU_IsbL-0225_RLatLon0.09_PT008H.grib2 2026-05-09 02:41 341K
20260509T00Z_MSC_RDPS_WindU_IsbL-0250_RLatLon0.09_PT008H.grib2 2026-05-09 02:41 342K
20260509T00Z_MSC_RDPS_WindU_IsbL-0275_RLatLon0.09_PT008H.grib2 2026-05-09 02:41 355K
20260509T00Z_MSC_RDPS_WindU_IsbL-0300_RLatLon0.09_PT008H.grib2 2026-05-09 02:41 350K
20260509T00Z_MSC_RDPS_WindU_IsbL-0350_RLatLon0.09_PT008H.grib2 2026-05-09 02:41 359K
20260509T00Z_MSC_RDPS_WindU_IsbL-0400_RLatLon0.09_PT008H.grib2 2026-05-09 02:41 463K
20260509T00Z_MSC_RDPS_WindU_IsbL-0450_RLatLon0.09_PT008H.grib2 2026-05-09 02:41 465K
20260509T00Z_MSC_RDPS_WindU_IsbL-0500_RLatLon0.09_PT008H.grib2 2026-05-09 02:41 470K
20260509T00Z_MSC_RDPS_WindU_IsbL-0550_RLatLon0.09_PT008H.grib2 2026-05-09 02:41 455K
20260509T00Z_MSC_RDPS_WindU_IsbL-0600_RLatLon0.09_PT008H.grib2 2026-05-09 02:41 465K
20260509T00Z_MSC_RDPS_WindU_IsbL-0650_RLatLon0.09_PT008H.grib2 2026-05-09 02:41 483K
20260509T00Z_MSC_RDPS_WindU_IsbL-0700_RLatLon0.09_PT008H.grib2 2026-05-09 02:41 508K
20260509T00Z_MSC_RDPS_WindU_IsbL-0750_RLatLon0.09_PT008H.grib2 2026-05-09 02:41 537K
20260509T00Z_MSC_RDPS_WindU_IsbL-0800_RLatLon0.09_PT008H.grib2 2026-05-09 02:41 580K
20260509T00Z_MSC_RDPS_WindU_IsbL-0850_RLatLon0.09_PT008H.grib2 2026-05-09 02:41 628K
20260509T00Z_MSC_RDPS_WindU_IsbL-0875_RLatLon0.09_PT008H.grib2 2026-05-09 02:41 643K
20260509T00Z_MSC_RDPS_WindU_IsbL-0900_RLatLon0.09_PT008H.grib2 2026-05-09 02:41 653K
20260509T00Z_MSC_RDPS_WindU_IsbL-0925_RLatLon0.09_PT008H.grib2 2026-05-09 02:41 662K
20260509T00Z_MSC_RDPS_WindU_IsbL-0950_RLatLon0.09_PT008H.grib2 2026-05-09 02:41 662K
20260509T00Z_MSC_RDPS_WindU_IsbL-0970_RLatLon0.09_PT008H.grib2 2026-05-09 02:41 798K
20260509T00Z_MSC_RDPS_WindU_IsbL-0985_RLatLon0.09_PT008H.grib2 2026-05-09 02:41 789K
20260509T00Z_MSC_RDPS_WindU_IsbL-1000_RLatLon0.09_PT008H.grib2 2026-05-09 02:41 784K
20260509T00Z_MSC_RDPS_WindU_IsbL-1015_RLatLon0.09_PT008H.grib2 2026-05-09 02:41 825K
20260509T00Z_MSC_RDPS_WindV_AGL-10m_RLatLon0.09_PT008H.grib2 2026-05-09 02:41 431K
20260509T00Z_MSC_RDPS_WindV_AGL-120m_RLatLon0.09_PT008H.grib2 2026-05-09 02:41 537K
20260509T00Z_MSC_RDPS_WindV_AGL-40m_RLatLon0.09_PT008H.grib2 2026-05-09 02:41 540K
20260509T00Z_MSC_RDPS_WindV_AGL-80m_RLatLon0.09_PT008H.grib2 2026-05-09 02:41 538K
20260509T00Z_MSC_RDPS_WindV_IsbL-0001_RLatLon0.09_PT008H.grib2 2026-05-09 02:41 241K
20260509T00Z_MSC_RDPS_WindV_IsbL-0005_RLatLon0.09_PT008H.grib2 2026-05-09 02:41 280K
20260509T00Z_MSC_RDPS_WindV_IsbL-0010_RLatLon0.09_PT008H.grib2 2026-05-09 02:41 289K
20260509T00Z_MSC_RDPS_WindV_IsbL-0020_RLatLon0.09_PT008H.grib2 2026-05-09 02:41 303K
20260509T00Z_MSC_RDPS_WindV_IsbL-0030_RLatLon0.09_PT008H.grib2 2026-05-09 02:41 305K
20260509T00Z_MSC_RDPS_WindV_IsbL-0050_RLatLon0.09_PT008H.grib2 2026-05-09 02:41 332K
20260509T00Z_MSC_RDPS_WindV_IsbL-0100_RLatLon0.09_PT008H.grib2 2026-05-09 02:41 329K
20260509T00Z_MSC_RDPS_WindV_IsbL-0150_RLatLon0.09_PT008H.grib2 2026-05-09 02:41 391K
20260509T00Z_MSC_RDPS_WindV_IsbL-0175_RLatLon0.09_PT008H.grib2 2026-05-09 02:41 412K
20260509T00Z_MSC_RDPS_WindV_IsbL-0200_RLatLon0.09_PT008H.grib2 2026-05-09 02:41 332K
20260509T00Z_MSC_RDPS_WindV_IsbL-0225_RLatLon0.09_PT008H.grib2 2026-05-09 02:41 365K
20260509T00Z_MSC_RDPS_WindV_IsbL-0250_RLatLon0.09_PT008H.grib2 2026-05-09 02:41 366K
20260509T00Z_MSC_RDPS_WindV_IsbL-0275_RLatLon0.09_PT008H.grib2 2026-05-09 02:41 354K
20260509T00Z_MSC_RDPS_WindV_IsbL-0300_RLatLon0.09_PT008H.grib2 2026-05-09 02:41 350K
20260509T00Z_MSC_RDPS_WindV_IsbL-0350_RLatLon0.09_PT008H.grib2 2026-05-09 02:41 358K
20260509T00Z_MSC_RDPS_WindV_IsbL-0400_RLatLon0.09_PT008H.grib2 2026-05-09 02:41 359K
20260509T00Z_MSC_RDPS_WindV_IsbL-0450_RLatLon0.09_PT008H.grib2 2026-05-09 02:41 360K
20260509T00Z_MSC_RDPS_WindV_IsbL-0500_RLatLon0.09_PT008H.grib2 2026-05-09 02:41 466K
20260509T00Z_MSC_RDPS_WindV_IsbL-0550_RLatLon0.09_PT008H.grib2 2026-05-09 02:41 469K
20260509T00Z_MSC_RDPS_WindV_IsbL-0600_RLatLon0.09_PT008H.grib2 2026-05-09 02:41 477K
20260509T00Z_MSC_RDPS_WindV_IsbL-0650_RLatLon0.09_PT008H.grib2 2026-05-09 02:41 479K
20260509T00Z_MSC_RDPS_WindV_IsbL-0700_RLatLon0.09_PT008H.grib2 2026-05-09 02:41 503K
20260509T00Z_MSC_RDPS_WindV_IsbL-0750_RLatLon0.09_PT008H.grib2 2026-05-09 02:41 532K
20260509T00Z_MSC_RDPS_WindV_IsbL-0800_RLatLon0.09_PT008H.grib2 2026-05-09 02:41 576K
20260509T00Z_MSC_RDPS_WindV_IsbL-0850_RLatLon0.09_PT008H.grib2 2026-05-09 02:41 624K
20260509T00Z_MSC_RDPS_WindV_IsbL-0875_RLatLon0.09_PT008H.grib2 2026-05-09 02:41 639K
20260509T00Z_MSC_RDPS_WindV_IsbL-0900_RLatLon0.09_PT008H.grib2 2026-05-09 02:41 652K
20260509T00Z_MSC_RDPS_WindV_IsbL-0925_RLatLon0.09_PT008H.grib2 2026-05-09 02:41 661K
20260509T00Z_MSC_RDPS_WindV_IsbL-0950_RLatLon0.09_PT008H.grib2 2026-05-09 02:41 662K
20260509T00Z_MSC_RDPS_WindV_IsbL-0970_RLatLon0.09_PT008H.grib2 2026-05-09 02:41 798K
20260509T00Z_MSC_RDPS_WindV_IsbL-0985_RLatLon0.09_PT008H.grib2 2026-05-09 02:41 790K
20260509T00Z_MSC_RDPS_WindV_IsbL-1000_RLatLon0.09_PT008H.grib2 2026-05-09 02:41 785K
20260509T00Z_MSC_RDPS_WindV_IsbL-1015_RLatLon0.09_PT008H.grib2 2026-05-09 02:41 824K